Precipitable_Water
1.25 1.27 1.33 1.34 1.31 1.30 1.33 1.33 1.30 1.24 1.19 1.20 1.23 1.26 1.31 1.32 1.34 1.36 1.36 1.32 1.35 1.36 1.35 1.32 1.28 1.24 1.22 1.21 1.19 1.17 1.16 1.17 1.20 1.21 1.20 1.21 1.22 1.23 1.22 1.19 1.14 1.13 1.12 1.10 1.11 1.10 1.08 1.07 1.07 1.09 1.12 1.08 1.10 1.12 1.12 1.14 1.15 1.15 1.11 1.05 1.00 0.99 0.92 0.80 0.71 0.67 0.73 0.77 0.74 0.68 0.68 0.64 0.59 0.63 0.61 0.57 0.50 0.49 0.46 0.41 0.39 0.38 0.39 0.40 0.40
1.26 1.28 1.31 1.35 1.32 1.33 1.32 1.32 1.30 1.29 1.27 1.25 1.23 1.25 1.31 1.37 1.40 1.35 1.29 1.30 1.34 1.35 1.34 1.31 1.26 1.23 1.20 1.18 1.17 1.16 1.16 1.16 1.19 1.19 1.18 1.18 1.20 1.22 1.20 1.17 1.14 1.13 1.13 1.10 1.11 1.10 1.08 1.05 1.06 1.08 1.11 1.08 1.10 1.10 1.13 1.14 1.13 1.12 1.07 1.02 0.99 0.96 0.97 0.85 0.78 0.72 0.66 0.71 0.70 0.71 0.66 0.63 0.52 0.58 0.53 0.48 0.44 0.44 0.41 0.41 0.41 0.41 0.41 0.42 0.42
1.27 1.30 1.30 1.30 1.30 1.32 1.31 1.29 1.30 1.31 1.31 1.31 1.31 1.28 1.27 1.33 1.39 1.33 1.28 1.29 1.35 1.35 1.33 1.32 1.27 1.22 1.18 1.16 1.14 1.13 1.13 1.14 1.16 1.16 1.15 1.16 1.16 1.18 1.19 1.18 1.14 1.12 1.11 1.10 1.10 1.10 1.07 1.06 1.06 1.08 1.10 1.08 1.11 1.13 1.15 1.13 1.14 1.10 1.05 1.03 0.98 0.96 0.95 0.92 0.82 0.74 0.71 0.69 0.70 0.67 0.64 0.62 0.54 0.51 0.53 0.50 0.47 0.46 0.43 0.42 0.42 0.43 0.43 0.44 0.45
1.25 1.29 1.29 1.27 1.27 1.30 1.29 1.29 1.27 1.29 1.30 1.26 1.22 1.26 1.25 1.27 1.32 1.31 1.31 1.32 1.32 1.34 1.33 1.32 1.29 1.23 1.17 1.15 1.12 1.09 1.09 1.11 1.12 1.13 1.14 1.16 1.16 1.16 1.16 1.16 1.14 1.12 1.11 1.10 1.10 1.09 1.06 1.05 1.06 1.08 1.09 1.08 1.10 1.12 1.13 1.13 1.10 1.08 1.04 1.02 0.99 0.96 0.96 0.93 0.88 0.81 0.73 0.67 0.71 0.67 0.66 0.63 0.63 0.60 0.58 0.53 0.48 0.46 0.46 0.47 0.48 0.46 0.46 0.48 0.50
1.12 1.20 1.28 1.29 1.28 1.25 1.24 1.24 1.26 1.28 1.26 1.24 1.23 1.27 1.25 1.24 1.25 1.25 1.30 1.32 1.31 1.32 1.31 1.33 1.30 1.22 1.14 1.11 1.09 1.06 1.05 1.08 1.09 1.11 1.13 1.16 1.15 1.12 1.11 1.10 1.10 1.11 1.11 1.11 1.11 1.10 1.09 1.08 1.09 1.08 1.08 1.04 1.06 1.07 1.10 1.08 1.11 1.15 1.11 1.04 1.02 1.01 0.97 0.91 0.88 0.83 0.76 0.69 0.71 0.73 0.72 0.69 0.69 0.67 0.63 0.56 0.53 0.53 0.55 0.55 0.54 0.53 0.52 0.54 0.55
1.05 1.09 1.13 1.17 1.22 1.22 1.19 1.18 1.20 1.22 1.26 1.29 1.28 1.29 1.29 1.27 1.27 1.26 1.25 1.25 1.33 1.30 1.29 1.30 1.26 1.17 1.14 1.13 1.09 1.04 1.05 1.08 1.08 1.08 1.07 1.07 1.06 1.05 1.05 1.08 1.10 1.10 1.10 1.11 1.12 1.12 1.11 1.11 1.10 1.08 1.05 1.02 1.02 1.05 1.07 1.08 1.11 1.10 1.11 1.08 1.05 1.01 0.94 0.89 0.87 0.84 0.80 0.77 0.74 0.73 0.76 0.70 0.69 0.69 0.66 0.63 0.58 0.57 0.58 0.61 0.64 0.65 0.64 0.62 0.63
0.97 0.99 1.03 1.05 1.07 1.11 1.13 1.16 1.19 1.21 1.24 1.27 1.30 1.30 1.31 1.31 1.28 1.26 1.29 1.30 1.33 1.30 1.29 1.29 1.22 1.13 1.11 1.10 1.06 1.05 1.07 1.07 1.06 1.04 1.00 0.99 0.99 0.99 1.02 1.05 1.06 1.06 1.08 1.10 1.11 1.12 1.12 1.12 1.10 1.08 1.07 1.07 1.06 1.04 1.06 1.08 1.10 1.13 1.14 1.08 1.05 0.99 0.93 0.89 0.86 0.82 0.80 0.77 0.77 0.76 0.75 0.75 0.71 0.67 0.69 0.67 0.64 0.62 0.59 0.59 0.61 0.65 0.68 0.68 0.66
0.92 0.93 0.96 0.96 0.98 1.02 1.08 1.13 1.18 1.22 1.25 1.25 1.26 1.28 1.32 1.33 1.31 1.31 1.32 1.30 1.32 1.32 1.29 1.26 1.19 1.13 1.09 1.06 1.07 1.09 1.08 1.06 1.04 1.00 0.96 0.97 0.98 0.99 1.00 1.00 1.00 1.01 1.04 1.05 1.06 1.07 1.11 1.12 1.11 1.12 1.12 1.13 1.11 1.09 1.07 1.05 1.08 1.10 1.10 1.05 1.01 0.95 0.89 0.86 0.84 0.82 0.79 0.77 0.76 0.76 0.75 0.72 0.71 0.73 0.72 0.69 0.65 0.65 0.67 0.64 0.62 0.63 0.63 0.66 0.68
0.89 0.90 0.92 0.93 0.96 1.01 1.06 1.12 1.16 1.19 1.22 1.23 1.22 1.25 1.29 1.31 1.32 1.32 1.32 1.32 1.35 1.33 1.31 1.27 1.17 1.10 1.08 1.07 1.08 1.09 1.08 1.06 1.03 0.98 0.96 0.98 0.99 0.98 0.97 0.97 0.97 0.97 0.97 0.99 0.99 1.01 1.04 1.10 1.14 1.19 1.20 1.21 1.18 1.14 1.10 1.08 1.05 1.01 1.00 0.98 0.92 0.87 0.84 0.82 0.80 0.77 0.76 0.75 0.74 0.75 0.71 0.69 0.70 0.70 0.69 0.67 0.66 0.66 0.70 0.69 0.67 0.69 0.69 0.68 0.71
0.87 0.88 0.88 0.91 0.95 0.99 1.03 1.09 1.14 1.18 1.19 1.20 1.23 1.25 1.26 1.28 1.31 1.31 1.32 1.30 1.32 1.35 1.33 1.26 1.18 1.11 1.05 1.08 1.11 1.08 1.07 1.05 1.03 1.01 1.00 0.97 0.95 0.94 0.94 0.93 0.95 0.93 0.92 0.91 0.92 0.96 1.00 1.05 1.10 1.15 1.16 1.17 1.19 1.13 1.08 1.04 1.02 1.00 0.97 0.92 0.87 0.84 0.81 0.78 0.75 0.74 0.72 0.70 0.69 0.69 0.66 0.65 0.68 0.70 0.69 0.70 0.71 0.72 0.71 0.71 0.69 0.73 0.74 0.73 0.76
0.85 0.86 0.87 0.91 0.94 0.97 1.00 1.05 1.11 1.16 1.19 1.21 1.23 1.25 1.25 1.28 1.30 1.29 1.31 1.30 1.27 1.33 1.33 1.25 1.18 1.14 1.08 1.09 1.08 1.03 1.02 1.04 1.03 1.00 0.97 0.95 0.93 0.90 0.88 0.89 0.91 0.91 0.89 0.88 0.87 0.92 0.98 1.02 1.07 1.09 1.11 1.13 1.13 1.10 1.07 1.04 1.00 0.97 0.95 0.92 0.90 0.85 0.79 0.75 0.73 0.72 0.70 0.69 0.70 0.69 0.68 0.67 0.69 0.73 0.73 0.74 0.75 0.74 0.74 0.77 0.79 0.80 0.79 0.76 0.73
0.83 0.84 0.87 0.90 0.92 0.92 0.94 0.99 1.04 1.11 1.18 1.20 1.21 1.23 1.24 1.26 1.27 1.29 1.30 1.28 1.30 1.33 1.31 1.26 1.20 1.16 1.12 1.11 1.05 0.98 1.00 1.03 1.01 0.99 0.95 0.94 0.93 0.91 0.90 0.88 0.88 0.89 0.89 0.88 0.90 0.95 0.99 0.99 1.02 1.04 1.04 1.06 1.06 1.06 1.05 1.02 1.00 0.98 0.95 0.93 0.92 0.91 0.88 0.82 0.76 0.74 0.74 0.74 0.75 0.77 0.79 0.79 0.81 0.83 0.85 0.86 0.87 0.90 0.91 0.90 0.87 0.84 0.82 0.79 0.78
0.80 0.80 0.82 0.83 0.85 0.88 0.92 0.94 0.97 1.03 1.11 1.18 1.22 1.22 1.22 1.22 1.23 1.29 1.29 1.29 1.25 1.25 1.26 1.25 1.19 1.15 1.11 1.04 0.95 0.97 1.00 1.01 0.97 0.95 0.94 0.93 0.92 0.91 0.90 0.90 0.89 0.90 0.91 0.91 0.92 0.96 0.99 0.96 0.98 1.01 1.01 1.03 1.05 1.05 1.04 1.02 1.00 0.99 0.98 0.97 0.97 0.96 0.94 0.92 0.91 0.89 0.89 0.86 0.83 0.84 0.85 0.86 0.85 0.89 0.93 0.93 0.97 0.90 0.92 0.89 0.89 0.88 0.86 0.82 0.82
0.78 0.78 0.80 0.80 0.82 0.84 0.89 0.91 0.92 0.97 1.06 1.15 1.20 1.22 1.21 1.20 1.23 1.28 1.30 1.26 1.23 1.23 1.25 1.22 1.18 1.12 1.05 0.94 0.90 0.99 1.02 1.00 0.95 0.94 0.94 0.94 0.94 0.94 0.94 0.92 0.91 0.91 0.92 0.92 0.92 0.96 0.97 0.96 0.96 0.97 1.01 1.05 1.07 1.06 1.04 1.02 1.00 0.99 0.99 0.99 0.98 0.98 0.98 0.98 0.98 0.98 0.98 0.94 0.91 0.86 0.92 0.93 0.88 0.92 0.97 0.99 0.93 0.88 0.86 0.84 0.87 0.85 0.84 0.83 0.88
0.77 0.77 0.77 0.79 0.80 0.81 0.82 0.85 0.87 0.93 1.00 1.09 1.17 1.21 1.20 1.20 1.19 1.24 1.28 1.26 1.22 1.20 1.20 1.18 1.14 1.08 1.01 0.94 0.94 1.02 1.04 1.01 0.97 0.97 0.97 0.96 0.95 0.96 0.96 0.96 0.94 0.95 0.95 0.93 0.93 0.96 0.98 0.99 0.98 1.00 1.03 1.05 1.06 1.06 1.05 1.05 1.05 1.04 1.01 0.99 0.98 0.96 0.96 0.96 0.97 0.98 0.99 0.98 0.96 0.94 0.93 0.95 0.96 0.97 0.98 1.00 0.97 0.96 0.95 0.92 0.91 0.90 0.90 0.92 0.91
0.74 0.75 0.75 0.76 0.76 0.77 0.78 0.80 0.85 0.89 0.95 1.02 1.10 1.15 1.17 1.17 1.17 1.24 1.26 1.25 1.22 1.20 1.18 1.17 1.12 1.04 1.00 0.97 0.97 1.02 1.04 1.02 1.00 0.99 0.96 0.93 0.93 0.94 0.97 0.96 0.95 0.97 0.95 0.94 0.96 0.99 1.03 1.03 1.01 1.02 1.06 1.08 1.11 1.11 1.10 1.08 1.04 1.00 0.96 0.94 0.91 0.90 0.89 0.91 0.93 0.93 0.92 0.91 0.90 0.89 0.89 0.91 0.92 0.92 0.93 0.93 0.92 0.93 0.93 0.93 0.92 0.89 0.84 0.79 0.76
0.72 0.74 0.74 0.75 0.76 0.76 0.76 0.77 0.80 0.85 0.91 0.97 1.03 1.11 1.14 1.14 1.17 1.22 1.23 1.20 1.18 1.14 1.16 1.14 1.10 1.05 1.00 0.99 1.01 1.03 1.02 1.01 1.01 1.00 0.98 0.97 0.93 0.92 0.92 0.94 0.96 0.99 0.98 0.97 0.96 0.96 0.98 1.01 1.02 1.02 1.02 1.03 1.05 1.07 1.08 1.06 1.02 0.97 0.94 0.91 0.89 0.85 0.83 0.86 0.88 0.89 0.88 0.88 0.88 0.89 0.89 0.89 0.90 0.90 0.90 0.90 0.89 0.89 0.87 0.81 0.77 0.79 0.73 0.67 0.69
0.72 0.74 0.75 0.75 0.75 0.76 0.77 0.77 0.76 0.79 0.84 0.89 0.97 1.05 1.13 1.13 1.15 1.20 1.18 1.16 1.11 1.12 1.15 1.09 1.07 1.05 1.02 1.01 1.03 1.04 1.03 1.03 1.05 1.05 1.03 1.00 0.95 0.92 0.93 0.92 0.94 0.97 0.98 1.00 1.00 0.98 0.96 0.95 0.97 0.99 1.00 1.02 1.06 1.07 1.08 1.07 1.02 0.98 0.92 0.86 0.82 0.80 0.81 0.85 0.86 0.88 0.90 0.90 0.90 0.89 0.89 0.89 0.90 0.90 0.89 0.89 0.89 0.88 0.82 0.74 0.78 0.78 0.71 0.71 0.68
0.70 0.71 0.75 0.77 0.77 0.77 0.77 0.77 0.77 0.78 0.79 0.84 0.92 0.98 1.02 1.09 1.13 1.15 1.16 1.15 1.12 1.09 1.14 1.08 1.04 1.03 1.05 1.04 1.05 1.06 1.07 1.07 1.07 1.07 1.05 1.03 1.00 0.95 0.93 0.93 0.92 0.94 0.96 0.97 0.99 0.99 0.99 0.97 0.96 0.96 0.96 0.96 0.99 0.99 0.99 0.99 0.96 0.93 0.90 0.85 0.82 0.80 0.82 0.84 0.84 0.85 0.86 0.86 0.86 0.86 0.86 0.87 0.87 0.85 0.85 0.86 0.85 0.85 0.84 0.81 0.80 0.75 0.68 0.67 0.66
0.70 0.72 0.75 0.78 0.79 0.79 0.79 0.78 0.77 0.77 0.79 0.82 0.88 0.92 0.98 1.02 1.09 1.08 1.12 1.10 1.08 1.07 1.10 1.08 1.02 1.00 1.02 1.03 1.04 1.06 1.04 1.06 1.07 1.08 1.06 1.04 1.02 0.98 0.96 0.93 0.92 0.94 0.96 0.96 0.95 0.98 1.00 1.01 1.02 1.01 1.01 1.02 1.00 0.97 0.95 0.95 0.92 0.91 0.90 0.87 0.84 0.81 0.84 0.84 0.83 0.83 0.82 0.82 0.82 0.83 0.82 0.83 0.82 0.82 0.82 0.82 0.82 0.81 0.80 0.79 0.76 0.70 0.63 0.60 0.57
0.67 0.70 0.72 0.75 0.77 0.79 0.80 0.80 0.79 0.79 0.81 0.83 0.86 0.89 0.93 0.97 1.04 1.06 1.06 1.08 1.06 1.05 1.06 1.05 1.02 1.03 1.00 1.01 1.03 1.04 1.05 1.04 1.06 1.07 1.07 1.07 1.06 1.03 1.00 0.97 0.97 0.97 0.97 0.97 0.96 0.95 0.96 0.98 1.00 0.99 0.99 0.98 0.98 0.99 0.97 0.95 0.91 0.89 0.86 0.82 0.82 0.83 0.85 0.81 0.81 0.81 0.80 0.80 0.79 0.79 0.80 0.81 0.83 0.85 0.84 0.83 0.81 0.79 0.74 0.69 0.65 0.63 0.57 0.50 0.46
0.62 0.65 0.69 0.71 0.74 0.77 0.79 0.82 0.83 0.82 0.83 0.84 0.85 0.89 0.93 0.95 1.00 1.04 1.03 1.03 1.01 1.01 1.01 1.00 1.00 1.00 1.00 1.02 1.02 1.03 1.05 1.05 1.05 1.06 1.07 1.08 1.09 1.09 1.07 1.05 1.05 1.01 0.97 0.95 0.94 0.95 0.96 0.98 1.00 1.01 1.00 0.99 0.97 0.94 0.91 0.89 0.87 0.85 0.84 0.85 0.85 0.84 0.82 0.82 0.81 0.80 0.80 0.80 0.80 0.80 0.81 0.80 0.78 0.75 0.72 0.68 0.65 0.62 0.59 0.57 0.55 0.53 0.52 0.50 0.46
0.60 0.61 0.64 0.68 0.71 0.74 0.77 0.80 0.82 0.84 0.85 0.85 0.85 0.86 0.92 0.92 0.93 0.97 0.99 0.98 0.97 0.96 0.97 0.98 0.98 0.97 0.98 0.98 1.01 1.02 1.03 1.04 1.05 1.06 1.06 1.06 1.06 1.06 1.06 1.05 1.05 1.02 1.01 0.96 0.98 0.99 1.01 1.01 1.01 1.00 1.00 0.98 0.97 0.96 0.96 0.95 0.93 0.92 0.90 0.88 0.87 0.86 0.84 0.81 0.80 0.77 0.76 0.74 0.71 0.67 0.66 0.63 0.59 0.57 0.56 0.54 0.54 0.53 0.51 0.50 0.49 0.48 0.46 0.46 0.45
0.58 0.57 0.60 0.63 0.67 0.71 0.74 0.77 0.80 0.83 0.84 0.86 0.86 0.86 0.86 0.88 0.90 0.90 0.91 0.91 0.92 0.92 0.93 0.94 0.94 0.94 0.94 0.95 0.96 0.97 0.99 0.99 1.02 1.01 1.02 1.02 1.01 1.02 1.02 1.01 1.01 1.00 0.99 0.97 0.98 0.99 0.98 0.98 0.97 0.97 0.95 0.94 0.93 0.92 0.91 0.89 0.87 0.85 0.85 0.84 0.83 0.81 0.78 0.76 0.74 0.70 0.66 0.63 0.61 0.59 0.56 0.55 0.53 0.50 0.49 0.49 0.49 0.48 0.48 0.47 0.46 0.45 0.43 0.42 0.43
0.58 0.56 0.56 0.58 0.62 0.66 0.70 0.74 0.78 0.80 0.82 0.84 0.83 0.83 0.83 0.85 0.84 0.85 0.85 0.86 0.87 0.87 0.89 0.91 0.89 0.89 0.89 0.90 0.91 0.92 0.94 0.96 0.98 0.99 0.99 0.99 1.00 1.00 1.00 0.99 0.98 0.98 0.96 0.96 0.96 0.96 0.95 0.94 0.93 0.91 0.90 0.89 0.87 0.86 0.86 0.86 0.85 0.84 0.83 0.82 0.81 0.78 0.74 0.69 0.66 0.64 0.60 0.56 0.54 0.51 0.50 0.49 0.48 0.48 0.48 0.46 0.45 0.45 0.44 0.43 0.44 0.43 0.43 0.42 0.42
0.61 0.59 0.58 0.58 0.57 0.61 0.64 0.68 0.73 0.77 0.79 0.81 0.81 0.82 0.81 0.82 0.83 0.83 0.84 0.84 0.83 0.83 0.83 0.85 0.86 0.86 0.84 0.86 0.86 0.86 0.87 0.88 0.89 0.90 0.92 0.92 0.92 0.93 0.93 0.93 0.93 0.93 0.93 0.92 0.93 0.93 0.91 0.90 0.89 0.87 0.86 0.86 0.85 0.84 0.83 0.83 0.83 0.83 0.81 0.78 0.74 0.70 0.67 0.64 0.60 0.56 0.51 0.49 0.48 0.47 0.46 0.47 0.45 0.44 0.44 0.43 0.40 0.38 0.39 0.38 0.38 0.38 0.38 0.38 0.37
0.63 0.62 0.61 0.60 0.60 0.60 0.59 0.62 0.66 0.71 0.75 0.77 0.79 0.79 0.81 0.80 0.77 0.76 0.79 0.80 0.81 0.81 0.80 0.81 0.81 0.82 0.82 0.83 0.84 0.85 0.85 0.86 0.86 0.86 0.86 0.86 0.86 0.87 0.88 0.88 0.88 0.88 0.88 0.89 0.88 0.87 0.86 0.85 0.84 0.83 0.83 0.83 0.82 0.81 0.80 0.78 0.75 0.71 0.68 0.66 0.65 0.62 0.60 0.56 0.52 0.50 0.48 0.47 0.45 0.44 0.43 0.42 0.42 0.40 0.37 0.37 0.35 0.37 0.38 0.37 0.36 0.36 0.38 0.38 0.37
0.64 0.64 0.65 0.64 0.62 0.60 0.60 0.60 0.61 0.63 0.66 0.71 0.74 0.76 0.78 0.78 0.75 0.73 0.74 0.77 0.77 0.77 0.78 0.79 0.79 0.79 0.80 0.81 0.81 0.81 0.82 0.82 0.83 0.83 0.84 0.84 0.85 0.86 0.86 0.86 0.86 0.85 0.83 0.82 0.82 0.82 0.80 0.80 0.80 0.79 0.76 0.72 0.69 0.66 0.64 0.63 0.62 0.60 0.59 0.58 0.56 0.55 0.54 0.53 0.51 0.48 0.46 0.44 0.41 0.40 0.38 0.37 0.35 0.34 0.35 0.34 0.33 0.34 0.36 0.35 0.33 0.33 0.36 0.37 0.34
0.63 0.64 0.65 0.66 0.65 0.64 0.62 0.61 0.62 0.62 0.61 0.62 0.64 0.69 0.73 0.76 0.75 0.75 0.76 0.77 0.77 0.76 0.75 0.76 0.78 0.79 0.78 0.77 0.77 0.76 0.76 0.77 0.80 0.84 0.84 0.84 0.83 0.82 0.81 0.81 0.80 0.79 0.77 0.76 0.74 0.73 0.72 0.69 0.66 0.64 0.62 0.60 0.58 0.57 0.56 0.55 0.55 0.55 0.54 0.54 0.53 0.51 0.49 0.46 0.43 0.41 0.40 0.38 0.36 0.35 0.34 0.34 0.33 0.34 0.33 0.32 0.33 0.33 0.36 0.34 0.35 0.34 0.35 0.35 0.33
0.57 0.59 0.62 0.64 0.65 0.65 0.64 0.63 0.62 0.62 0.62 0.62 0.62 0.62 0.64 0.67 0.68 0.68 0.68 0.72 0.74 0.75 0.75 0.72 0.74 0.76 0.75 0.74 0.75 0.73 0.72 0.75 0.79 0.79 0.78 0.78 0.78 0.78 0.77 0.77 0.74 0.72 0.70 0.70 0.69 0.66 0.64 0.63 0.63 0.61 0.59 0.58 0.56 0.55 0.54 0.54 0.53 0.51 0.51 0.50 0.48 0.46 0.43 0.41 0.39 0.38 0.38 0.36 0.35 0.34 0.33 0.33 0.32 0.32 0.32 0.31 0.32 0.34 0.35 0.35 0.34 0.35 0.33 0.33 0.32
0.53 0.54 0.57 0.59 0.62 0.65 0.64 0.64 0.65 0.64 0.63 0.62 0.62 0.61 0.61 0.63 0.64 0.65 0.66 0.66 0.67 0.68 0.68 0.69 0.69 0.69 0.71 0.72 0.76 0.77 0.76 0.76 0.76 0.76 0.75 0.74 0.74 0.74 0.75 0.74 0.73 0.72 0.71 0.69 0.66 0.63 0.61 0.59 0.59 0.59 0.57 0.56 0.54 0.52 0.51 0.50 0.48 0.47 0.45 0.44 0.42 0.40 0.39 0.38 0.37 0.37 0.36 0.35 0.34 0.34 0.34 0.33 0.32 0.32 0.32 0.32 0.32 0.33 0.33 0.35 0.34 0.34 0.33 0.32 0.31
0.51 0.51 0.52 0.54 0.58 0.61 0.63 0.64 0.64 0.64 0.64 0.64 0.63 0.62 0.60 0.59 0.60 0.63 0.65 0.65 0.66 0.67 0.67 0.67 0.67 0.68 0.69 0.69 0.69 0.72 0.74 0.75 0.74 0.73 0.73 0.72 0.72 0.72 0.72 0.72 0.71 0.70 0.69 0.68 0.63 0.60 0.59 0.57 0.55 0.54 0.53 0.51 0.51 0.50 0.49 0.47 0.46 0.43 0.41 0.39 0.38 0.39 0.38 0.36 0.38 0.37 0.35 0.35 0.33 0.33 0.33 0.33 0.32 0.32 0.31 0.31 0.31 0.30 0.31 0.31 0.32 0.32 0.32 0.33 0.33
0.50 0.51 0.53 0.54 0.54 0.56 0.59 0.62 0.62 0.63 0.62 0.62 0.63 0.63 0.62 0.61 0.58 0.59 0.62 0.64 0.64 0.64 0.65 0.66 0.66 0.66 0.67 0.67 0.68 0.67 0.67 0.69 0.71 0.71 0.71 0.71 0.70 0.70 0.69 0.69 0.68 0.67 0.66 0.62 0.58 0.56 0.55 0.54 0.52 0.51 0.50 0.48 0.47 0.46 0.45 0.44 0.42 0.40 0.39 0.38 0.37 0.37 0.38 0.38 0.38 0.36 0.35 0.34 0.34 0.33 0.33 0.32 0.32 0.32 0.31 0.31 0.31 0.30 0.30 0.30 0.32 0.33 0.33 0.33 0.34
0.47 0.48 0.49 0.50 0.52 0.53 0.56 0.59 0.61 0.61 0.62 0.62 0.62 0.61 0.61 0.62 0.61 0.61 0.59 0.60 0.61 0.63 0.63 0.63 0.62 0.62 0.62 0.63 0.62 0.62 0.63 0.63 0.64 0.64 0.64 0.64 0.65 0.65 0.64 0.63 0.63 0.62 0.60 0.56 0.54 0.51 0.51 0.49 0.48 0.47 0.46 0.44 0.43 0.43 0.41 0.41 0.39 0.39 0.38 0.38 0.37 0.37 0.37 0.37 0.36 0.34 0.34 0.34 0.33 0.33 0.33 0.33 0.32 0.31 0.31 0.31 0.31 0.31 0.31 0.31 0.32 0.31 0.32 0.32 0.32
0.46 0.46 0.46 0.47 0.48 0.50 0.53 0.56 0.57 0.59 0.60 0.59 0.59 0.59 0.59 0.60 0.60 0.59 0.59 0.58 0.57 0.56 0.57 0.60 0.62 0.61 0.59 0.57 0.57 0.57 0.57 0.57 0.57 0.57 0.57 0.57 0.56 0.56 0.56 0.54 0.52 0.52 0.52 0.51 0.49 0.48 0.46 0.45 0.44 0.43 0.43 0.41 0.41 0.40 0.39 0.39 0.39 0.38 0.37 0.36 0.36 0.36 0.36 0.35 0.34 0.34 0.34 0.33 0.33 0.33 0.33 0.33 0.32 0.32 0.31 0.30 0.30 0.30 0.31 0.31 0.31 0.32 0.31 0.31 0.32
0.42 0.44 0.44 0.45 0.46 0.47 0.49 0.51 0.54 0.56 0.56 0.57 0.58 0.58 0.58 0.58 0.58 0.58 0.58 0.57 0.56 0.55 0.56 0.57 0.59 0.60 0.60 0.59 0.57 0.54 0.53 0.53 0.53 0.53 0.52 0.52 0.50 0.49 0.44 0.43 0.43 0.43 0.43 0.45 0.44 0.44 0.44 0.43 0.42 0.41 0.41 0.40 0.40 0.39 0.39 0.38 0.38 0.37 0.37 0.36 0.35 0.35 0.35 0.35 0.34 0.34 0.34 0.33 0.33 0.33 0.32 0.32 0.32 0.32 0.32 0.32 0.31 0.31 0.31 0.31 0.31 0.32 0.32 0.31 0.31
0.38 0.39 0.40 0.42 0.43 0.44 0.46 0.47 0.48 0.50 0.53 0.54 0.54 0.55 0.56 0.57 0.57 0.57 0.56 0.55 0.54 0.54 0.54 0.55 0.56 0.56 0.57 0.58 0.58 0.57 0.54 0.51 0.50 0.50 0.49 0.49 0.48 0.46 0.44 0.43 0.41 0.42 0.41 0.41 0.41 0.41 0.40 0.40 0.40 0.39 0.38 0.38 0.38 0.39 0.38 0.38 0.38 0.37 0.37 0.37 0.37 0.36 0.35 0.35 0.35 0.34 0.33 0.32 0.32 0.32 0.32 0.31 0.32 0.32 0.32 0.31 0.31 0.31 0.31 0.31 0.31 0.31 0.31 0.31 0.31
0.36 0.36 0.37 0.38 0.40 0.41 0.42 0.42 0.44 0.46 0.48 0.49 0.50 0.51 0.52 0.52 0.53 0.54 0.54 0.52 0.52 0.52 0.51 0.52 0.51 0.50 0.49 0.51 0.56 0.54 0.54 0.54 0.54 0.52 0.51 0.50 0.48 0.46 0.45 0.44 0.43 0.42 0.41 0.41 0.41 0.40 0.39 0.39 0.39 0.38 0.38 0.38 0.38 0.38 0.38 0.38 0.38 0.38 0.37 0.37 0.37 0.36 0.36 0.35 0.34 0.33 0.33 0.32 0.32 0.32 0.32 0.32 0.32 0.32 0.32 0.31 0.30 0.30 0.30 0.30 0.30 0.29 0.29 0.30 0.29
0.39 0.37 0.37 0.37 0.37 0.38 0.38 0.39 0.40 0.42 0.44 0.45 0.46 0.47 0.47 0.48 0.50 0.51 0.52 0.51 0.50 0.50 0.50 0.50 0.48 0.48 0.47 0.49 0.49 0.52 0.51 0.48 0.46 0.46 0.47 0.47 0.48 0.47 0.46 0.45 0.44 0.44 0.43 0.43 0.42 0.41 0.40 0.40 0.40 0.40 0.40 0.39 0.39 0.39 0.39 0.38 0.38 0.38 0.37 0.36 0.35 0.34 0.33 0.33 0.33 0.33 0.32 0.32 0.32 0.32 0.31 0.31 0.31 0.31 0.31 0.31 0.30 0.30 0.29 0.29 0.29 0.28 0.27 0.27 0.28
0.37 0.39 0.38 0.38 0.37 0.36 0.37 0.37 0.38 0.38 0.39 0.40 0.41 0.44 0.45 0.46 0.47 0.49 0.49 0.49 0.48 0.48 0.48 0.47 0.47 0.47 0.48 0.47 0.46 0.47 0.45 0.44 0.44 0.45 0.44 0.45 0.44 0.45 0.45 0.44 0.44 0.43 0.43 0.42 0.42 0.42 0.41 0.41 0.41 0.40 0.39 0.39 0.39 0.39 0.39 0.38 0.37 0.37 0.36 0.34 0.33 0.32 0.33 0.33 0.33 0.32 0.32 0.32 0.31 0.31 0.30 0.30 0.30 0.30 0.30 0.30 0.30 0.29 0.28 0.28 0.28 0.28 0.28 0.28 0.28
0.35 0.38 0.38 0.38 0.37 0.36 0.36 0.36 0.36 0.36 0.37 0.38 0.39 0.40 0.41 0.43 0.45 0.47 0.48 0.47 0.47 0.47 0.47 0.46 0.46 0.46 0.46 0.45 0.46 0.45 0.44 0.43 0.43 0.43 0.44 0.43 0.44 0.43 0.44 0.44 0.44 0.43 0.43 0.42 0.42 0.42 0.41 0.40 0.39 0.38 0.38 0.38 0.38 0.37 0.37 0.36 0.35 0.34 0.34 0.33 0.33 0.33 0.33 0.32 0.32 0.31 0.30 0.30 0.29 0.29 0.29 0.29 0.29 0.29 0.28 0.29 0.29 0.29 0.29 0.29 0.28 0.28 0.28 0.28 0.28
0.33 0.36 0.36 0.37 0.37 0.37 0.36 0.35 0.35 0.35 0.36 0.36 0.37 0.37 0.38 0.40 0.43 0.45 0.46 0.45 0.45 0.45 0.45 0.45 0.45 0.45 0.45 0.44 0.43 0.44 0.43 0.43 0.43 0.42 0.42 0.42 0.42 0.42 0.43 0.44 0.45 0.44 0.43 0.43 0.42 0.41 0.40 0.39 0.38 0.38 0.38 0.37 0.37 0.36 0.35 0.35 0.34 0.34 0.34 0.33 0.32 0.31 0.30 0.30 0.30 0.29 0.29 0.28 0.28 0.28 0.28 0.29 0.29 0.29 0.28 0.28 0.27 0.28 0.27 0.28 0.28 0.28 0.27 0.27 0.27
0.34 0.35 0.36 0.36 0.36 0.36 0.35 0.35 0.35 0.35 0.36 0.35 0.35 0.35 0.36 0.38 0.40 0.43 0.43 0.43 0.43 0.43 0.43 0.42 0.43 0.43 0.43 0.43 0.42 0.42 0.41 0.41 0.42 0.42 0.41 0.41 0.41 0.41 0.42 0.42 0.43 0.44 0.44 0.44 0.43 0.42 0.40 0.39 0.39 0.38 0.38 0.38 0.38 0.37 0.36 0.35 0.35 0.35 0.34 0.32 0.31 0.30 0.29 0.29 0.29 0.29 0.29 0.28 0.28 0.28 0.28 0.28 0.28 0.28 0.27 0.27 0.27 0.27 0.27 0.27 0.27 0.27 0.27 0.26 0.26
0.33 0.34 0.34 0.34 0.35 0.36 0.37 0.36 0.35 0.35 0.36 0.36 0.35 0.35 0.35 0.36 0.38 0.40 0.40 0.41 0.41 0.42 0.42 0.42 0.42 0.41 0.42 0.42 0.42 0.40 0.39 0.38 0.38 0.39 0.40 0.40 0.40 0.41 0.41 0.42 0.43 0.44 0.43 0.43 0.43 0.42 0.41 0.39 0.39 0.39 0.39 0.39 0.38 0.38 0.37 0.37 0.36 0.34 0.33 0.31 0.30 0.29 0.28 0.28 0.28 0.28 0.28 0.28 0.28 0.28 0.27 0.27 0.27 0.27 0.27 0.27 0.26 0.26 0.26 0.26 0.26 0.26 0.26 0.26 0.26
0.32 0.32 0.32 0.32 0.33 0.35 0.36 0.37 0.36 0.36 0.36 0.36 0.36 0.35 0.36 0.35 0.35 0.37 0.37 0.38 0.39 0.41 0.42 0.41 0.40 0.41 0.41 0.41 0.40 0.38 0.38 0.38 0.37 0.37 0.38 0.38 0.39 0.40 0.41 0.42 0.42 0.42 0.43 0.43 0.43 0.43 0.42 0.41 0.41 0.40 0.39 0.39 0.39 0.39 0.38 0.38 0.36 0.33 0.31 0.29 0.28 0.27 0.27 0.28 0.28 0.28 0.28 0.27 0.27 0.26 0.26 0.25 0.25 0.24 0.24 0.24 0.25 0.25 0.24 0.25 0.25 0.25 0.25 0.25 0.25
0.32 0.33 0.34 0.33 0.33 0.34 0.35 0.36 0.37 0.36 0.36 0.37 0.36 0.35 0.36 0.36 0.36 0.36 0.37 0.38 0.38 0.39 0.40 0.40 0.40 0.39 0.40 0.39 0.40 0.39 0.38 0.37 0.37 0.36 0.36 0.38 0.39 0.40 0.40 0.41 0.42 0.42 0.42 0.43 0.43 0.42 0.42 0.42 0.41 0.41 0.40 0.40 0.40 0.39 0.38 0.36 0.33 0.31 0.29 0.28 0.27 0.28 0.28 0.28 0.29 0.28 0.28 0.27 0.26 0.25 0.24 0.24 0.23 0.23 0.22 0.22 0.22 0.22 0.21 0.22 0.22 0.22 0.22 0.23 0.24
0.32 0.33 0.34 0.34 0.34 0.34 0.35 0.36 0.37 0.38 0.37 0.37 0.37 0.37 0.37 0.37 0.37 0.37 0.38 0.38 0.38 0.39 0.39 0.39 0.39 0.38 0.39 0.40 0.38 0.39 0.38 0.36 0.36 0.35 0.34 0.35 0.37 0.38 0.39 0.40 0.40 0.41 0.41 0.42 0.43 0.42 0.42 0.42 0.41 0.40 0.39 0.39 0.38 0.36 0.34 0.32 0.29 0.27 0.26 0.26 0.26 0.26 0.26 0.27 0.28 0.27 0.27 0.27 0.26 0.24 0.23 0.21 0.20 0.19 0.18 0.18 0.17 0.17 0.17 0.17 0.18 0.18 0.19 0.20 0.21
0.32 0.32 0.33 0.34 0.34 0.33 0.33 0.34 0.36 0.39 0.40 0.40 0.39 0.39 0.39 0.39 0.38 0.38 0.38 0.39 0.39 0.39 0.39 0.38 0.36 0.37 0.39 0.39 0.40 0.39 0.39 0.37 0.36 0.35 0.34 0.33 0.34 0.34 0.36 0.37 0.38 0.39 0.40 0.40 0.41 0.41 0.41 0.41 0.40 0.39 0.38 0.36 0.34 0.31 0.29 0.27 0.26 0.25 0.25 0.25 0.26 0.26 0.27 0.27 0.27 0.27 0.26 0.25 0.24 0.22 0.21 0.19 0.18 0.16 0.14 0.14 0.14 0.14 0.14 0.14 0.15 0.15 0.15 0.17 0.19
0.33 0.32 0.31 0.30 0.29 0.28 0.29 0.31 0.33 0.35 0.37 0.39 0.41 0.41 0.40 0.40 0.40 0.40 0.40 0.40 0.40 0.40 0.39 0.38 0.36 0.35 0.36 0.38 0.39 0.38 0.38 0.38 0.37 0.36 0.35 0.35 0.33 0.32 0.31 0.31 0.33 0.35 0.37 0.38 0.38 0.39 0.39 0.39 0.38 0.36 0.34 0.32 0.29 0.26 0.25 0.25 0.25 0.25 0.25 0.25 0.26 0.25 0.25 0.25 0.25 0.24 0.23 0.22 0.22 0.21 0.20 0.18 0.17 0.14 0.13 0.13 0.14 0.14 0.14 0.14 0.14 0.14 0.15 0.16 0.18
0.32 0.31 0.29 0.27 0.26 0.26 0.27 0.28 0.28 0.30 0.31 0.33 0.35 0.37 0.39 0.40 0.40 0.40 0.40 0.40 0.41 0.40 0.40 0.39 0.38 0.37 0.37 0.37 0.38 0.38 0.38 0.38 0.37 0.37 0.37 0.36 0.35 0.34 0.32 0.30 0.29 0.30 0.31 0.32 0.34 0.34 0.35 0.34 0.32 0.30 0.28 0.27 0.26 0.26 0.26 0.26 0.26 0.25 0.25 0.24 0.24 0.23 0.22 0.22 0.21 0.21 0.22 0.21 0.20 0.19 0.18 0.17 0.15 0.14 0.13 0.13 0.13 0.12 0.12 0.12 0.13 0.15 0.15 0.15 0.16
0.31 0.29 0.28 0.28 0.27 0.26 0.26 0.26 0.28 0.29 0.30 0.32 0.33 0.35 0.36 0.38 0.39 0.40 0.40 0.40 0.40 0.41 0.41 0.40 0.39 0.39 0.40 0.41 0.39 0.38 0.37 0.39 0.39 0.38 0.38 0.37 0.36 0.35 0.33 0.30 0.28 0.28 0.28 0.28 0.27 0.27 0.27 0.27 0.26 0.26 0.27 0.27 0.27 0.27 0.26 0.26 0.25 0.24 0.23 0.22 0.22 0.21 0.19 0.19 0.18 0.18 0.18 0.19 0.18 0.17 0.16 0.15 0.13 0.11 0.11 0.11 0.10 0.10 0.10 0.11 0.13 0.14 0.15 0.15 0.16
Wind_Speed
17 18 20 20 20 20 21 20 20 20 20 19 18 18 19 19 19 19 19 20 21 22 22 21 21 20 20 20 20 19 19 19 19 19 18 18 18 17 17 17 17 16 16 16 15 15 15 15 15 15 15 15 15 15 14 15 15 14 14 14 13 12 11 10 9 9 10 10 10 10 9 9 10 10 11 11 11 11 12 12 12 12 12 12 13
14 16 17 18 19 19 20 20 19 19 19 19 19 19 19 19 20 20 20 21 21 22 22 22 21 21 21 21 20 20 20 20 19 19 18 18 18 18 18 17 17 16 16 16 15 15 15 15 15 15 15 15 15 15 15 15 15 14 14 14 13 13 12 11 10 10 11 11 10 10 10 10 10 10 11 11 11 12 12 12 12 13 13 13 14
13 13 15 16 17 17 18 18 18 18 18 19 20 20 20 20 20 21 21 21 22 22 22 22 22 22 21 21 21 20 20 20 20 19 19 18 18 18 18 18 17 17 16 16 16 16 16 16 16 16 15 15 15 15 15 15 15 15 14 14 14 13 13 12 11 11 11 11 11 11 10 10 10 10 11 11 12 12 12 12 13 14 14 15 15
12 11 12 14 15 15 16 17 18 18 18 19 20 20 20 20 21 21 22 22 22 22 22 22 22 22 22 22 21 21 21 21 20 20 19 19 19 18 18 18 18 17 17 16 16 16 16 16 16 16 16 16 16 15 15 15 15 15 14 14 14 13 13 13 12 12 12 12 12 11 11 11 11 11 11 12 12 12 13 13 14 14 15 16 16
11 10 11 12 14 15 16 17 17 18 18 18 20 21 21 21 21 21 22 22 23 23 22 23 23 23 23 23 22 21 21 21 20 20 20 19 19 18 18 18 18 17 17 16 16 16 16 16 16 16 16 16 16 16 15 15 15 15 15 14 14 14 14 14 14 13 13 13 12 12 12 12 12 12 12 13 13 13 13 14 14 15 16 17 17
11 10 10 11 13 15 16 17 18 19 19 19 20 21 21 21 22 22 22 22 23 23 22 22 23 23 24 23 23 22 21 21 21 20 20 19 19 18 18 17 17 17 17 16 16 16 16 16 16 16 16 16 16 16 15 15 16 16 15 15 14 15 15 15 15 14 14 14 13 13 13 13 13 13 13 13 14 14 15 15 16 16 17 17 18
11 10 11 12 13 15 17 18 19 20 20 20 20 21 22 22 23 22 22 23 23 23 23 22 22 23 23 23 23 22 22 21 21 20 19 19 19 18 18 17 17 17 16 16 16 16 16 16 17 17 17 17 17 16 16 16 16 16 16 16 15 15 15 15 15 15 15 15 14 14 14 14 14 14 14 15 15 15 16 16 17 17 18 18 19
12 11 11 12 13 15 17 18 20 20 21 20 21 21 22 23 23 23 23 23 24 23 23 22 22 22 22 22 22 22 22 22 21 20 20 19 19 18 18 17 17 17 16 16 16 16 16 17 17 17 17 17 17 17 16 16 16 16 16 16 16 16 15 15 15 15 15 15 15 15 15 14 14 15 15 16 16 17 17 18 19 19 19 20 21
13 12 12 12 12 14 16 17 19 20 21 22 21 22 23 23 24 24 24 24 25 24 24 23 23 23 22 22 22 22 22 22 21 20 20 19 19 18 18 18 17 17 16 16 16 16 16 16 17 17 17 17 17 16 16 16 16 16 16 17 16 16 15 15 14 15 15 15 15 15 15 15 15 15 16 17 17 18 18 18 19 20 21 21 22
14 13 13 13 13 13 15 16 17 19 21 22 22 23 23 23 24 24 24 24 25 26 25 25 25 24 22 22 22 22 22 22 21 21 20 20 19 19 18 18 17 17 16 16 16 16 16 16 17 17 17 16 16 16 15 15 16 16 16 16 16 15 15 14 14 14 14 15 15 15 16 16 16 17 17 18 18 19 19 20 20 21 21 22 22
14 14 14 13 13 14 14 15 16 17 19 20 22 23 23 23 24 24 24 24 25 26 26 25 25 25 23 23 22 22 22 21 21 21 20 19 19 18 18 18 17 17 16 15 15 15 16 16 16 16 16 16 16 16 15 14 14 14 14 15 14 15 14 14 14 14 15 14 15 15 16 16 17 17 18 18 19 19 20 20 21 21 22 22 23
14 14 14 14 14 15 15 15 15 16 17 19 20 22 23 23 24 24 24 24 24 25 26 26 26 26 25 24 23 22 22 21 21 21 20 19 18 18 18 18 17 16 16 15 15 15 15 16 16 16 16 16 16 16 15 14 14 14 13 13 13 14 14 14 14 15 15 15 15 15 15 16 17 17 18 19 19 20 20 21 21 22 22 23 23
13 14 14 14 15 15 15 15 16 16 16 17 19 20 21 23 24 24 24 24 24 25 26 26 26 26 25 24 23 22 22 21 20 20 20 19 18 18 18 18 17 16 16 15 15 15 15 16 16 15 15 15 15 15 15 15 14 14 14 13 13 13 13 13 14 14 15 15 15 15 16 17 17 18 19 20 20 21 21 22 23 23 24 24 25
14 14 15 15 15 15 15 15 16 16 16 16 18 19 20 21 22 23 23 23 23 24 25 26 26 26 25 24 23 22 21 21 21 21 20 19 18 18 18 17 17 16 16 15 15 15 15 15 15 15 15 15 15 15 15 15 15 15 14 14 14 14 14 14 14 15 16 16 16 17 17 18 18 19 20 20 21 22 22 23 24 24 25 25 26
14 14 15 15 16 16 16 16 16 16 15 15 15 16 18 19 20 21 22 22 22 23 24 26 26 26 25 24 23 22 21 21 21 21 20 19 18 18 18 17 17 17 16 15 15 15 15 15 15 15 15 15 15 16 16 16 16 16 15 15 15 16 16 16 16 16 17 17 17 18 18 19 19 20 21 21 22 23 23 24 24 25 26 26 27
14 15 15 16 16 16 16 16 15 15 15 14 13 13 15 17 18 19 20 21 21 22 24 25 26 26 26 25 24 23 22 21 21 21 20 19 18 18 18 17 17 17 16 15 15 15 16 16 16 16 16 16 16 16 16 16 16 16 16 16 16 17 17 16 16 16 16 17 17 18 19 20 20 21 22 23 23 24 24 25 25 26 26 27 27
15 15 15 16 16 16 16 16 15 14 13 12 11 11 12 14 16 18 19 20 21 22 23 25 25 25 26 25 24 22 22 21 21 21 20 19 19 18 18 18 17 17 16 16 16 16 16 17 17 18 17 17 17 17 16 17 17 17 17 17 17 17 17 17 17 17 17 17 18 19 20 21 21 22 22 23 24 24 25 25 26 27 27 28 29
16 16 16 16 16 15 15 15 14 13 12 11 10 9 10 12 14 16 17 19 20 21 23 24 24 25 26 26 24 23 22 21 21 21 20 20 19 19 19 18 17 17 16 16 17 17 17 17 17 18 18 18 18 18 18 18 18 18 18 17 17 18 18 19 19 19 19 19 20 21 21 22 22 23 23 24 24 25 26 26 27 28 28 29 29
16 16 16 16 16 15 15 14 14 13 12 11 9 8 8 10 12 14 17 18 19 20 23 24 23 23 25 25 24 23 23 22 21 21 21 20 20 20 20 19 18 18 18 17 17 18 17 17 17 18 18 18 18 18 18 18 19 19 19 18 18 19 20 21 21 21 21 21 22 22 23 23 23 24 24 25 25 26 27 27 28 28 28 28 29
16 16 16 16 15 15 14 14 13 12 12 11 9 8 7 8 9 11 15 17 18 19 22 23 22 22 23 24 24 23 23 22 22 21 21 21 21 21 21 20 19 19 18 18 18 18 18 18 18 18 18 18 18 18 18 19 19 19 20 20 20 20 21 22 22 22 22 23 23 24 24 25 25 26 26 26 26 26 26 26 27 27 28 28 29
16 16 16 15 15 15 14 13 12 11 11 10 8 6 5 5 6 6 9 12 15 17 20 22 22 22 23 23 22 22 22 21 21 21 21 21 21 21 21 21 20 20 19 19 19 19 19 19 19 19 18 18 19 19 19 19 20 20 21 21 21 21 21 22 22 23 23 24 24 24 24 25 25 25 25 25 25 25 26 26 27 28 28 29 29
16 16 15 15 15 14 14 12 11 11 10 9 8 5 3 4 4 4 4 7 9 13 17 20 22 22 22 21 21 21 21 20 20 20 20 20 20 20 21 21 20 20 20 20 20 20 19 19 20 20 20 20 20 20 20 20 21 22 22 22 21 22 23 24 24 24 24 24 23 23 22 22 23 23 23 24 25 25 26 27 27 28 28 29 29
16 15 15 15 14 14 14 13 11 11 10 9 8 6 4 4 5 5 4 5 6 9 13 18 20 21 21 20 20 20 20 19 19 20 20 20 20 20 20 21 21 21 21 21 21 21 20 21 21 21 21 21 22 22 22 22 23 24 23 23 23 24 24 24 23 22 22 21 21 21 22 23 23 24 24 25 26 26 27 27 27 27 27 28 28
16 15 15 15 14 13 13 13 12 11 11 10 8 7 7 7 7 6 6 6 6 7 9 13 16 18 19 19 19 19 19 19 19 20 20 20 20 20 20 20 21 21 21 21 22 22 22 22 22 22 22 23 23 23 23 24 24 24 24 23 23 22 22 21 20 20 20 21 21 22 23 24 24 25 25 26 26 27 27 27 27 27 27 27 27
15 15 15 14 14 13 13 13 12 12 11 11 9 8 8 7 7 7 7 6 6 6 7 9 11 14 16 17 18 19 19 19 20 20 20 21 21 20 20 20 19 19 20 21 22 22 22 22 22 22 22 23 23 23 22 22 22 22 21 20 20 20 19 20 20 20 21 22 22 23 24 24 25 25 25 26 26 26 26 26 26 26 26 26 27
15 14 14 14 14 13 13 12 12 12 12 11 10 9 8 8 8 8 8 7 7 8 9 9 10 12 13 15 16 17 18 18 19 20 21 21 21 21 21 21 20 20 20 22 23 23 24 23 22 22 21 21 21 20 20 19 18 18 18 18 18 19 20 20 21 21 22 22 23 23 24 24 24 24 25 25 25 25 25 25 26 26 27 27 28
15 14 14 13 13 13 13 13 12 12 12 12 11 9 9 8 8 9 9 9 10 10 11 11 11 12 13 14 15 16 17 18 19 20 21 22 22 23 23 23 23 22 23 23 23 23 23 21 20 20 20 19 19 18 18 17 17 17 17 18 19 19 20 20 21 22 22 22 23 23 23 23 23 23 24 24 24 24 25 25 26 27 28 29 30
14 14 14 13 13 13 13 13 12 12 12 12 11 11 10 10 10 9 10 10 11 11 11 11 12 13 14 14 15 16 17 18 18 19 20 21 22 23 23 23 23 23 23 22 20 20 19 19 19 18 18 18 17 16 16 16 17 17 18 18 19 20 20 21 21 21 22 22 22 22 22 22 22 22 23 23 23 24 25 25 26 27 28 30 30
15 14 14 14 14 13 13 12 12 11 11 11 11 11 11 11 11 11 11 11 11 11 11 11 12 12 13 14 15 16 17 18 18 18 19 19 20 21 21 21 21 20 19 18 18 17 17 17 17 17 16 16 15 15 16 17 17 18 19 19 20 20 21 21 21 21 21 21 21 21 21 21 21 22 22 23 23 24 25 26 27 28 29 30 30
16 15 15 14 14 14 13 13 12 11 11 11 11 11 11 11 11 11 11 11 11 11 12 12 12 12 12 13 13 14 15 16 17 17 17 17 17 17 17 17 17 16 16 16 16 16 16 15 15 15 15 15 16 16 17 18 18 19 19 20 20 20 20 20 20 20 20 20 20 20 20 20 21 21 22 23 24 24 25 26 27 28 29 30 30
15 15 15 14 14 14 14 13 13 12 12 12 12 12 12 12 12 12 12 12 12 11 11 12 12 12 12 13 12 12 12 12 13 13 14 14 14 14 14 14 14 15 15 15 15 15 15 15 15 16 16 16 17 18 18 19 19 19 20 20 20 20 20 19 20 20 20 20 19 19 20 20 21 22 22 23 24 25 26 26 27 28 29 29 30
15 15 15 14 14 14 13 13 13 13 13 13 13 13 13 13 14 13 13 12 12 12 11 11 11 12 12 12 12 11 11 11 11 11 11 11 12 12 12 13 14 14 15 15 15 15 16 16 16 17 17 18 18 19 19 19 19 20 20 19 19 19 19 19 18 18 18 18 19 19 20 20 21 22 23 23 24 25 26 26 27 28 29 29 29
15 15 15 15 14 14 14 14 13 13 13 14 14 13 14 14 14 14 14 13 12 12 11 11 11 11 11 11 12 12 12 11 11 11 11 12 12 13 13 14 14 15 16 16 16 16 17 17 17 18 18 18 19 19 19 19 19 19 19 18 18 17 17 17 17 17 18 18 19 19 20 21 21 22 23 23 24 25 26 26 27 28 28 29 29
16 16 16 16 15 15 15 14 14 14 14 14 14 14 14 14 14 14 14 14 13 13 12 12 12 12 12 13 13 13 13 13 13 13 14 14 14 15 15 16 16 16 17 17 17 17 18 18 18 19 19 19 19 19 19 19 18 18 17 17 16 16 17 17 17 18 18 19 19 20 20 21 22 22 23 24 24 25 25 26 27 28 28 29 29
16 16 16 16 16 16 16 15 15 15 15 15 15 15 14 14 14 14 14 14 14 14 14 14 14 14 14 15 15 14 14 14 15 15 16 16 16 17 17 18 18 18 18 19 19 19 19 19 19 20 19 19 19 19 18 17 17 16 16 16 16 16 17 17 18 18 19 19 20 20 21 21 22 23 23 24 24 25 26 26 27 28 28 28 29
16 16 15 15 15 15 15 15 15 15 16 16 16 16 16 15 15 15 15 14 14 15 15 16 16 16 16 16 16 16 16 16 16 16 16 17 17 18 19 19 19 19 20 20 20 20 20 20 20 20 19 18 18 17 17 16 16 16 17 17 17 17 17 18 18 18 19 19 20 20 21 22 22 23 23 24 24 25 26 26 27 28 28 28 28
16 16 15 15 15 15 15 15 15 15 16 16 16 17 17 17 17 17 16 16 16 16 16 17 17 17 17 17 17 17 17 17 17 17 17 17 17 18 18 19 19 19 19 19 20 20 19 19 19 19 19 18 17 17 16 16 16 17 17 17 17 17 18 18 18 19 19 20 20 20 21 22 22 23 23 24 24 25 26 26 27 27 27 27 27
15 15 15 16 16 15 15 15 15 15 16 16 17 17 18 18 18 18 18 18 17 17 17 17 17 18 18 18 18 18 18 18 18 18 18 18 18 18 19 19 19 19 19 20 20 20 19 19 18 18 17 17 16 16 16 16 16 16 17 17 17 17 18 18 18 19 19 19 20 20 21 22 22 23 23 24 25 25 26 26 26 26 26 26 26
13 14 15 15 16 16 16 16 16 16 17 17 18 18 18 19 19 18 18 18 18 18 18 18 19 19 19 19 19 18 18 18 18 19 19 19 19 19 19 19 20 20 20 20 20 19 18 18 17 16 16 16 16 16 16 16 16 16 17 17 17 17 17 17 18 18 19 19 20 21 21 22 22 23 24 24 25 25 25 26 26 26 25 25 25
12 12 13 14 15 15 16 16 16 17 17 17 18 19 19 19 19 19 19 19 19 19 19 19 19 19 19 19 19 19 19 18 19 19 19 19 19 20 19 19 19 19 19 19 19 18 17 17 16 16 16 16 16 16 16 16 16 16 16 16 16 16 17 17 18 18 19 20 20 21 21 22 23 23 24 24 25 25 25 25 25 25 24 24 24
12 12 12 13 13 14 15 15 16 16 17 17 18 19 19 19 19 19 19 19 19 19 19 19 19 19 18 18 18 18 18 18 18 18 19 19 19 19 19 19 19 19 18 18 18 18 17 17 16 16 16 16 16 16 16 16 16 16 16 16 16 17 17 18 18 18 19 20 20 21 21 22 23 23 24 24 24 24 24 24 24 23 23 22 22
12 12 12 13 13 13 13 13 14 14 15 16 17 18 18 19 19 19 18 18 18 18 18 19 19 19 19 18 18 18 18 18 17 17 18 18 18 18 18 18 19 19 18 18 18 17 17 17 16 16 16 16 16 16 16 16 16 16 16 17 17 17 17 18 18 19 19 20 20 21 21 22 22 23 23 23 23 23 23 23 23 22 21 21 20
13 13 13 13 13 13 12 12 12 12 13 14 15 16 16 17 18 18 18 18 17 17 18 18 19 19 18 18 18 18 18 18 18 18 18 18 18 18 18 18 19 19 18 18 17 17 17 17 17 17 17 16 16 16 16 16 16 17 17 17 17 17 17 17 18 18 19 20 20 20 21 21 22 22 22 23 23 22 22 21 21 20 19 18 18
14 14 14 14 14 13 13 12 12 11 12 12 13 14 14 15 16 17 18 18 18 18 18 18 19 19 18 18 18 17 17 18 18 18 18 18 18 19 19 19 19 19 18 18 18 18 17 17 17 17 17 16 16 16 16 16 16 16 16 16 16 17 17 17 18 18 19 19 20 20 20 21 21 22 22 22 22 21 21 20 19 18 18 17 16
14 14 14 14 14 13 13 13 12 12 11 12 12 13 13 13 14 16 17 18 18 18 19 19 19 20 20 20 19 19 18 18 18 18 19 19 19 19 19 19 19 19 19 19 19 18 18 17 17 17 17 16 16 16 16 16 15 15 15 16 16 16 17 17 17 18 18 19 19 19 20 20 21 21 21 21 21 20 19 18 17 17 16 16 15
15 15 15 15 14 14 13 13 13 12 12 12 12 12 13 13 13 14 16 17 17 18 18 19 19 20 20 21 21 20 20 20 19 19 19 19 19 19 19 19 19 19 19 19 18 18 18 18 17 17 17 16 16 16 15 15 15 15 15 15 15 15 16 16 16 17 17 18 18 19 19 20 20 20 20 20 19 18 18 17 16 16 16 15 15
16 15 15 15 15 15 14 13 13 13 13 13 12 12 13 13 13 13 14 15 16 17 18 18 18 19 19 20 21 21 20 20 20 20 20 20 19 19 19 19 19 19 19 19 18 18 18 18 17 17 17 16 16 15 15 15 14 14 14 14 14 15 15 15 15 16 16 17 17 18 18 18 19 19 18 18 17 16 16 16 15 15 15 15 14
16 15 15 15 15 15 15 14 14 13 13 13 13 13 13 13 13 13 13 14 14 15 16 16 17 18 18 19 20 20 20 20 20 20 19 19 19 19 19 19 19 19 19 19 18 18 18 18 17 17 16 16 15 15 14 14 14 13 13 13 14 14 14 14 15 15 16 16 16 17 17 17 17 17 16 15 15 14 14 14 14 14 14 14 14
17 16 15 15 15 15 15 15 15 14 14 14 14 14 14 14 14 14 14 14 14 15 15 15 15 16 17 18 18 19 19 19 19 19 19 19 19 19 19 19 19 19 19 18 18 18 18 18 17 16 16 15 15 14 14 13 13 13 13 13 13 13 14 14 14 14 15 15 15 15 15 15 15 15 14 14 14 14 14 14 13 13 13 13 13
18 17 16 15 15 15 16 15 15 15 15 15 15 15 15 15 15 15 15 15 15 15 15 15 15 15 15 16 16 17 17 18 19 19 19 19 19 18 18 18 18 18 18 18 18 17 17 17 16 16 15 15 14 14 13 13 12 12 12 12 12 13 13 13 14 14 14 14 14 14 14 13 13 13 13 13 13 13 13 13 13 13 13 12 12
19 18 17 16 16 16 16 16 16 16 16 16 16 16 16 15 15 15 15 15 15 15 15 15 15 15 15 15 15 16 16 17 17 18 18 18 18 18 17 17 17 17 17 17 17 17 16 16 16 15 15 14 14 13 13 12 12 12 12 12 12 12 13 13 13 13 13 13 13 12 12 12 12 13 13 13 13 13 13 12 12 12 12 11 11
Wind_Direction
276 259 251 247 246 244 243 245 245 244 246 247 246 243 239 236 235 235 233 231 230 228 228 228 229 230 230 229 229 230 231 232 234 235 236 236 236 235 234 234 235 237 238 239 239 239 239 238 237 237 238 239 240 240 240 238 237 238 239 239 241 244 246 246 244 244 244 246 250 250 248 248 249 248 246 246 246 247 248 250 250 251 253 253 253
282 263 253 247 245 244 243 244 246 247 246 245 244 242 239 237 236 236 235 233 232 230 229 228 228 229 230 229 229 230 232 233 235 235 235 235 235 234 234 234 235 236 237 238 239 240 240 238 237 237 238 238 238 238 238 236 235 236 236 238 239 241 243 244 244 245 246 247 250 250 248 248 250 251 249 249 249 249 250 252 253 255 256 256 257
290 269 255 246 245 246 243 242 245 246 246 245 243 241 240 239 238 237 236 235 234 232 230 228 228 229 230 229 229 230 233 235 235 235 235 235 234 234 234 234 234 235 237 238 239 240 239 238 237 237 237 238 237 237 237 235 235 235 235 236 237 238 240 243 245 247 248 249 249 250 249 249 252 253 252 250 249 250 252 254 256 258 259 259 261
301 280 261 250 246 246 245 244 245 246 248 247 243 241 241 241 239 239 238 237 235 233 231 230 228 229 230 230 230 232 234 235 235 235 234 234 233 233 233 234 235 235 237 239 240 240 239 238 237 236 236 236 236 236 236 235 234 234 233 234 234 236 239 242 246 249 250 250 250 251 251 251 254 255 254 253 252 252 255 257 259 261 262 263 264
307 291 272 259 252 250 250 251 250 249 250 248 244 243 242 240 239 239 239 237 235 232 231 231 229 229 230 230 231 232 234 234 234 233 233 233 233 233 233 234 235 236 238 239 240 241 239 238 236 235 235 235 235 235 235 234 233 232 232 233 233 236 240 244 246 248 250 251 252 254 255 255 257 258 258 257 257 257 259 261 263 264 265 266 267
308 297 281 269 261 257 256 256 255 254 253 250 246 245 243 240 239 239 238 236 234 231 230 230 229 228 229 230 230 232 233 233 232 231 231 231 232 233 233 234 236 237 239 240 241 241 239 238 236 235 235 234 234 234 234 234 233 232 232 233 235 239 243 246 247 248 250 252 254 256 257 257 259 260 261 261 261 262 263 265 266 267 268 269 271
308 299 289 279 271 266 263 261 260 259 256 252 250 247 245 242 240 240 238 236 234 231 229 228 228 228 228 229 229 231 232 231 230 229 230 231 231 232 232 234 235 237 239 240 241 240 239 237 236 235 235 234 234 234 234 235 235 233 232 233 236 241 245 248 249 250 251 254 255 256 258 259 260 262 263 262 263 265 266 268 269 270 271 272 274
312 305 298 289 281 275 270 266 264 262 259 256 253 250 247 243 241 240 239 236 233 231 229 228 227 227 227 228 229 230 230 229 228 229 230 231 231 231 231 232 234 236 239 240 240 240 238 237 236 235 235 234 234 234 234 235 234 231 231 234 238 242 245 249 251 251 252 253 254 256 258 259 261 262 263 263 264 267 268 270 272 273 274 275 277
317 311 306 300 292 284 277 271 267 264 261 258 255 253 249 246 243 240 238 237 233 231 230 228 226 226 227 228 230 230 228 227 227 228 229 230 229 230 232 232 234 236 238 239 239 239 238 237 236 235 233 233 233 232 232 233 232 230 232 236 239 242 244 248 250 251 252 253 254 255 257 259 261 262 263 265 267 269 271 272 273 275 276 277 278
320 316 311 307 302 294 286 279 273 268 263 259 255 253 251 247 244 240 237 236 233 230 229 227 225 225 226 228 230 229 226 225 225 226 227 228 229 231 232 233 233 235 237 237 238 239 238 237 236 233 232 232 231 229 229 230 230 231 234 237 239 240 243 247 250 252 253 254 256 257 259 261 263 264 265 267 269 270 272 273 274 275 276 278 279
320 319 317 313 308 304 296 288 282 274 266 261 256 253 250 246 242 239 236 234 232 229 228 226 224 223 225 227 228 228 225 224 223 224 225 226 228 229 230 230 231 234 236 237 238 238 237 236 234 232 231 230 229 228 228 228 227 229 233 236 238 242 245 248 251 253 255 256 258 260 262 264 266 267 268 269 270 272 273 274 275 276 277 278 280
320 321 321 318 314 310 305 299 294 284 272 265 259 254 251 245 241 238 235 232 231 228 227 225 222 220 223 225 226 226 224 223 222 222 223 224 225 227 227 228 230 232 235 237 238 238 236 234 232 231 229 228 227 227 226 226 227 229 232 236 241 246 248 250 251 253 255 257 260 262 265 267 269 270 271 272 273 274 276 277 278 278 279 280 281
323 323 323 322 319 314 310 307 304 296 283 272 264 257 252 246 241 238 233 230 230 228 226 223 219 218 221 223 224 223 223 224 223 221 222 223 223 225 227 229 230 231 233 237 238 236 232 229 228 227 226 224 224 224 225 227 229 231 234 238 243 247 249 251 253 255 257 259 262 265 267 269 271 272 273 274 275 276 278 279 279 280 281 282 283
324 324 325 326 323 319 315 311 307 302 293 281 270 261 254 247 242 238 232 229 228 227 224 220 216 217 220 220 220 220 222 223 221 219 220 222 223 225 227 230 231 231 232 235 235 232 228 225 223 223 223 223 224 225 227 230 232 235 238 242 246 249 251 254 256 258 261 264 265 267 270 272 274 276 276 277 278 279 280 281 281 282 283 283 284
324 325 326 327 327 323 319 314 309 305 300 290 277 264 254 246 241 237 231 227 227 226 222 217 214 216 218 218 218 220 221 221 219 218 221 222 224 226 227 229 231 231 231 233 232 229 226 223 222 222 224 226 228 229 232 235 237 239 242 246 250 253 255 257 259 262 265 267 268 270 273 275 277 277 278 278 279 281 282 283 283 284 285 285 285
324 324 326 328 329 327 324 319 314 310 306 298 284 267 254 244 239 236 229 225 226 225 220 216 214 215 216 216 217 220 221 221 218 218 220 221 223 225 225 228 230 230 229 230 231 230 228 226 226 226 227 230 232 234 236 239 241 243 246 250 253 255 257 259 261 264 266 269 271 274 276 278 278 278 278 278 279 281 283 283 284 285 285 285 286
320 321 323 326 328 328 328 325 320 315 310 304 288 267 253 242 237 233 227 226 227 222 217 215 214 215 215 215 216 219 220 220 218 218 220 221 222 224 224 226 228 228 229 231 232 232 231 230 230 230 231 233 235 236 238 240 243 246 248 251 254 256 258 260 263 267 269 271 274 277 278 279 279 280 281 281 282 282 283 284 284 285 286 286 286
315 316 318 320 323 326 328 329 326 321 316 309 294 273 256 242 235 232 227 226 225 218 214 215 214 214 215 215 216 219 219 219 218 218 220 222 223 224 225 227 229 230 232 233 233 233 232 232 233 233 234 236 237 238 240 242 245 248 249 252 255 257 260 263 266 269 270 272 275 277 278 280 281 283 285 285 285 285 285 285 285 286 287 287 287
310 311 313 315 318 322 324 328 330 329 324 315 300 284 264 243 239 237 229 225 221 214 213 215 213 213 215 215 217 219 219 219 220 219 220 222 224 226 227 229 230 231 233 234 233 234 235 235 235 236 237 238 241 242 244 245 247 250 251 253 256 259 262 264 267 269 270 273 275 278 279 281 283 285 286 287 287 288 288 287 286 286 287 288 288
306 307 309 310 313 316 319 323 328 331 330 323 308 290 266 244 245 244 230 222 218 213 211 210 209 211 213 214 216 219 219 221 222 221 222 224 225 227 229 230 231 231 232 233 233 234 236 238 239 239 240 242 244 246 248 250 250 252 255 258 260 262 264 266 268 270 272 274 277 279 281 282 283 285 286 288 288 289 289 288 287 287 288 289 290
304 303 305 307 310 312 314 317 321 325 328 327 316 297 264 238 246 246 225 217 215 211 208 206 207 211 213 215 217 219 220 223 224 224 225 226 227 229 230 231 231 231 231 233 234 235 237 240 241 241 243 246 247 249 251 253 254 257 260 263 265 266 268 270 271 273 275 278 280 282 283 283 285 286 288 288 288 289 289 290 290 290 290 291 292
303 302 303 306 308 310 311 312 314 317 321 323 317 307 269 230 242 247 224 214 212 209 208 207 208 211 214 216 218 220 222 226 227 226 226 227 228 230 231 231 233 233 233 235 236 235 237 241 244 245 248 250 250 251 253 254 257 259 261 263 265 267 269 272 273 275 277 278 280 282 284 286 287 288 289 289 289 290 291 292 292 293 293 294 294
301 302 303 304 307 310 311 311 310 310 312 312 307 297 275 250 252 257 244 231 224 217 215 214 213 213 215 218 221 223 226 229 230 228 229 230 230 232 234 235 235 236 237 238 238 238 240 245 248 249 250 252 253 254 255 256 258 260 262 264 266 268 270 272 273 274 276 278 280 282 284 286 287 288 289 289 290 290 291 292 293 294 295 295 295
300 302 303 304 306 309 310 309 308 307 305 301 295 288 277 265 263 263 256 246 238 229 222 218 216 218 220 224 227 229 232 234 233 232 233 234 235 238 240 240 240 240 240 240 241 242 244 248 250 250 251 252 254 255 256 257 258 260 262 264 266 268 270 271 272 273 275 277 280 282 283 285 286 287 288 289 289 290 291 292 293 294 294 295 295
299 301 302 303 304 305 306 306 306 305 301 294 287 283 277 270 267 264 257 248 238 229 224 220 218 222 226 230 233 236 237 237 237 237 238 241 242 242 242 243 243 243 242 241 241 243 246 249 250 250 250 251 253 254 254 254 255 257 260 262 265 267 269 270 272 273 276 278 280 282 283 285 286 287 288 289 290 291 291 292 293 294 295 295 296
299 301 302 302 300 300 301 302 302 301 298 291 283 278 275 270 266 262 257 252 245 238 235 234 232 233 234 235 236 238 239 239 239 240 242 244 244 243 243 244 245 247 247 246 245 247 249 250 249 248 248 250 251 252 252 252 253 255 258 261 263 266 268 270 272 274 276 279 281 282 284 285 286 287 289 290 291 292 293 293 294 295 295 295 296
298 300 301 300 299 298 297 296 296 295 293 286 277 273 273 271 266 262 259 258 256 250 244 243 243 242 241 239 238 239 240 241 242 243 243 244 244 245 246 247 249 251 252 251 249 247 246 245 244 244 246 247 249 249 249 250 253 256 259 261 264 266 269 271 274 276 278 280 281 282 284 285 286 288 289 290 292 293 294 295 295 296 296 296 297
294 296 297 295 294 295 295 293 290 288 287 283 275 268 268 269 267 265 264 262 260 257 253 251 252 251 249 247 245 244 243 244 246 246 247 247 248 247 247 249 250 251 249 247 244 241 239 238 238 240 242 243 245 246 248 252 256 260 263 265 268 270 272 274 276 278 280 280 281 282 283 285 286 288 290 291 293 295 296 296 297 298 298 298 299
291 292 292 290 289 289 289 288 285 282 281 279 272 265 264 265 264 265 267 267 264 261 259 258 258 258 257 256 255 253 251 252 252 251 250 250 249 248 247 247 246 242 237 234 234 233 232 232 235 237 239 241 244 247 252 258 262 265 268 270 271 273 274 276 277 279 279 280 281 282 284 285 287 289 291 293 295 296 297 298 299 299 300 300 300
290 289 288 288 287 286 285 284 283 279 277 274 269 263 263 263 263 264 267 269 268 266 263 260 259 258 258 259 258 257 255 255 256 254 251 248 246 244 240 236 233 230 228 228 230 231 232 233 237 240 243 246 251 255 260 264 267 269 271 273 274 274 275 276 277 278 278 279 281 282 284 287 289 291 293 295 297 298 299 299 300 300 301 301 302
289 288 286 285 284 284 283 280 278 276 275 274 271 267 266 267 267 267 268 269 269 269 266 263 260 259 257 256 255 255 254 253 252 249 244 240 236 232 227 226 227 229 230 232 235 237 239 241 244 248 251 255 259 262 265 267 269 271 272 274 274 275 275 275 276 277 278 280 282 284 287 289 291 293 295 296 297 298 300 300 301 302 303 304 304
289 287 285 283 282 282 281 279 276 274 272 272 271 270 268 268 269 270 270 269 269 269 267 265 264 261 258 256 254 252 251 250 246 240 234 231 229 227 226 230 234 236 237 240 242 244 246 248 251 254 256 260 263 265 267 268 270 271 272 272 273 273 273 274 276 277 279 282 284 287 289 291 293 294 295 297 298 300 301 302 303 304 305 306 307
288 286 285 284 282 280 278 277 276 274 271 270 270 270 268 267 265 266 267 267 267 267 268 269 268 264 260 259 257 254 252 250 245 240 237 236 236 235 236 240 243 245 245 246 247 249 251 253 255 257 259 261 263 265 267 268 269 270 270 270 271 271 273 275 277 279 282 284 286 288 290 292 293 295 297 299 300 301 303 304 306 307 308 308 309
287 285 284 283 281 280 277 275 274 273 271 269 269 268 268 267 264 262 262 261 262 263 265 268 270 268 265 264 263 261 259 256 253 251 249 248 248 247 248 249 251 251 250 248 248 250 253 255 256 257 259 262 263 265 267 268 268 269 269 269 270 271 273 275 278 281 283 285 287 289 291 293 295 297 299 301 302 304 305 306 307 308 309 309 309
287 285 284 283 281 279 277 275 273 272 270 269 268 266 266 266 265 262 260 259 259 260 262 265 267 268 268 267 267 266 264 261 259 257 255 253 253 253 253 252 251 251 250 250 251 252 254 256 259 260 261 263 265 266 266 266 266 266 267 268 270 272 275 278 280 282 284 287 289 291 292 294 296 298 300 303 304 305 306 307 308 308 309 309 310
287 285 284 284 282 280 278 276 273 270 268 268 267 266 265 264 263 261 260 259 260 262 263 265 266 267 267 267 267 266 265 262 261 259 257 255 255 254 252 251 250 250 250 252 253 255 257 259 261 262 262 263 264 264 264 264 264 266 267 270 272 274 277 279 281 284 286 289 291 292 294 296 298 300 302 303 305 305 306 307 308 308 309 310 310
288 285 283 282 282 281 280 279 277 274 269 266 266 266 265 264 263 262 261 261 262 264 265 265 266 267 268 268 267 266 263 261 260 259 259 258 257 254 252 250 250 251 252 254 256 258 260 260 261 261 261 261 261 261 261 263 265 267 269 271 273 275 278 280 282 285 288 290 292 294 296 298 300 301 302 303 304 305 306 307 308 309 310 311 311
292 288 285 282 280 278 277 277 278 277 273 269 266 266 265 264 263 263 263 263 263 265 266 266 266 267 268 269 269 268 266 264 262 261 260 259 258 255 253 252 252 252 254 256 258 259 260 260 260 259 259 259 259 259 261 263 265 267 269 271 274 276 279 281 284 286 289 292 293 295 297 299 300 301 302 303 304 306 307 309 310 310 311 311 312
303 297 291 286 283 280 277 276 275 275 275 273 270 268 267 267 265 264 263 263 263 264 266 267 268 268 269 270 270 270 269 267 264 262 261 260 259 257 256 256 255 256 256 257 258 259 259 258 257 257 256 256 257 259 261 263 265 267 269 272 274 277 279 282 284 287 290 292 294 296 297 299 301 302 303 304 306 308 309 310 310 311 311 312 313
317 310 303 296 290 285 282 279 277 276 275 275 274 272 270 269 268 267 267 266 265 265 265 266 268 270 271 271 271 271 270 268 265 262 260 259 259 258 258 257 257 256 256 256 255 255 254 253 252 253 254 255 257 259 261 263 265 267 269 271 274 277 280 283 285 288 290 293 295 296 298 300 301 303 305 306 308 309 309 309 310 310 311 313 313
326 323 318 311 303 296 290 285 281 279 278 278 278 276 273 270 269 268 268 268 268 267 266 266 267 269 270 270 269 268 267 266 264 260 258 258 258 257 256 255 254 253 253 253 252 252 251 251 251 252 254 256 258 259 260 262 264 266 269 273 276 279 282 284 287 290 292 294 296 298 300 302 303 305 306 308 308 309 309 309 309 310 311 312 312
331 330 327 322 317 311 303 294 287 284 283 283 283 281 277 273 269 267 266 266 266 266 266 267 268 269 270 270 269 268 266 264 262 260 258 257 257 256 255 254 253 252 252 252 251 250 250 250 251 252 254 256 257 258 260 263 266 269 273 275 278 280 283 286 289 291 293 296 298 300 302 303 305 306 307 308 308 308 308 309 309 310 311 311 311
337 334 331 328 326 322 315 306 298 293 291 289 288 285 282 277 272 268 266 265 264 263 264 265 266 267 268 268 268 267 266 264 262 260 259 258 257 256 255 255 255 254 253 252 250 249 248 249 250 252 254 256 257 259 262 265 268 271 274 276 278 281 284 287 290 293 295 298 299 301 303 304 305 306 306 307 307 308 309 309 309 309 309 310 310
342 338 335 331 329 326 323 317 310 304 300 298 295 292 288 284 277 272 268 267 266 265 264 264 265 264 264 265 265 264 264 263 262 260 259 258 257 257 256 256 255 254 252 251 249 248 247 249 250 252 254 256 258 260 262 265 269 272 274 277 279 282 285 289 292 295 297 299 300 302 303 304 305 305 306 306 307 308 308 308 307 307 307 307 309
346 342 340 336 332 329 326 322 317 312 308 306 303 300 296 292 285 278 273 270 269 268 267 267 266 264 263 263 263 263 262 262 262 260 258 257 257 257 256 255 254 252 251 250 248 247 247 248 250 252 255 257 259 261 263 266 269 272 275 278 281 284 287 290 293 296 298 299 301 303 304 305 306 306 307 307 307 307 307 306 305 304 305 306 307
347 344 342 340 338 334 330 326 321 317 313 310 309 307 304 300 295 287 280 274 272 272 272 270 268 265 264 264 264 263 263 263 263 262 260 258 257 256 255 254 253 251 250 249 248 247 248 249 251 252 254 256 258 260 263 266 270 273 276 280 283 286 289 292 294 296 298 300 302 304 305 306 307 308 308 308 307 306 305 304 303 303 303 304 306
347 344 342 341 340 339 336 331 326 322 317 313 311 309 308 306 304 299 291 284 279 277 275 274 271 268 266 265 264 263 262 262 262 262 261 260 258 256 254 253 252 251 250 249 248 248 248 249 250 251 252 254 257 260 263 266 270 273 277 280 284 287 290 292 294 296 298 300 302 305 307 308 309 310 310 309 308 306 305 305 304 304 303 303 304
349 346 343 341 341 340 338 334 331 326 321 316 312 309 307 306 306 305 301 296 290 285 281 279 276 271 268 267 266 264 262 261 261 261 261 260 258 255 253 252 251 250 249 249 249 248 249 249 249 250 251 253 256 259 261 264 268 272 276 280 284 287 289 292 293 295 298 301 304 307 309 310 312 312 312 311 310 309 308 308 307 306 305 304 303
350 347 344 342 341 340 339 337 335 331 326 321 315 310 306 305 305 305 303 301 297 293 288 286 282 276 272 270 269 266 263 262 261 261 261 260 258 256 253 252 251 250 249 248 248 248 248 248 248 249 250 252 254 256 258 261 265 269 274 279 283 286 289 291 294 296 299 302 305 308 311 313 314 314 314 313 312 311 311 311 310 309 308 307 305
351 348 346 344 343 341 339 338 336 334 332 328 323 317 311 307 305 304 303 301 299 296 293 290 287 282 277 274 272 269 266 263 262 261 260 259 258 256 254 251 250 249 248 248 247 246 246 247 247 247 248 249 250 252 254 258 263 268 273 278 283 286 290 293 295 298 300 303 306 309 311 314 315 315 315 315 314 314 314 314 313 313 312 310 308
352 349 346 344 342 341 340 339 336 334 332 331 328 324 319 313 309 306 303 301 298 297 295 293 290 286 281 277 276 274 271 267 264 262 260 258 257 255 253 251 248 247 246 246 245 244 244 243 244 244 244 245 246 249 252 257 262 267 273 278 283 287 291 294 296 298 300 302 305 308 311 314 316 317 316 317 317 316 316 316 316 316 316 314 312